Location: Blesse
(52.8441°N, 6.0383°E)
Time: 17:58:42
(UTC+00:00)

Daily predictions for brighter satellites

Satellite Brightness Start Highest point End
(mag) Time Altitude Azimuth Time Altitude Azimuth Time Altitude Azimuth
Cosmos 2219 Rocket 4.4 18:47:37 10° W 18:52:19 26° NW 18:57:02 10° NNE
Cosmos 2263 4.3 18:47:04 10° NNW 18:52:41 66° NE 18:58:15 10° SE
Cosmos 1470 2.7 18:49:21 10° S 18:53:11 66° E 18:57:06 10° NNE
STARLINK-1244 3.6 18:49:08 10° WSW 18:53:16 77° SSE 18:57:26 10° E
PKM 4.5 18:50:26 10° WSW 18:53:58 86° NNW 19:00:56 10° ENE
Ariane Rocket 3.2 18:52:30 10° SSE 18:57:35 80° WSW 19:02:41 10° NNW
STARLINK-1138 3.6 18:54:06 10° WSW 18:58:15 80° SSE 19:02:25 10° E
Aureole 2 Rocket 2.5 18:54:52 10° NNW 18:58:24 82° WSW 19:01:51 10° SSE
Abrixas rocket 3.3 18:56:24 10° SW 18:58:54 25° SSE 19:01:18 11° ESE
STARLINK-67 2.3 18:56:50 10° W 18:59:24 84° N 19:01:57 10° E
Cosmos 2074 Rocket 4.2 18:53:26 10° N 18:59:38 56° ENE 19:05:48 10° SSE
Cosmos 1544 Rocket 4.0 18:56:32 10° SSW 19:00:56 71° WNW 19:05:25 10° N
ATLAS 2AS CENTAUR R/B 3.1 18:53:53 10° NW 19:01:40 65° NE 19:08:47 10° ESE
IRIDIUM 103 4.4 18:57:11 10° N 19:02:22 59° E 19:07:31 10° SSE
STARLINK-1143 3.6 18:59:01 10° WSW 19:03:11 81° SSE 19:07:20 10° E
ISS -2.0 19:00:58 10° W 19:03:47 25° SSW 19:06:37 10° SSE
Cosmos 1825 Rocket 3.9 19:00:21 10° N 19:04:38 46° ENE 19:08:52 10° SSE
Cosmos 1943 3.9 19:00:12 10° SSE 19:05:05 31° ESE 19:10:00 10° NE
USA 234 4.2 19:01:02 10° ENE 19:06:05 23° SE 19:11:06 10° S
STARLINK-1241 3.6 19:04:03 10° WSW 19:08:13 84° SSE 19:12:23 10° E
SL-08 RB Rocket 3.7 19:05:20 10° SSE 19:09:52 72° ENE 19:14:28 10° N
STARLINK-1239 3.6 19:09:02 10° WSW 19:13:11 85° S 19:17:21 10° E
SPOT 3 Rocket 3.6 19:08:52 10° SSE 19:14:02 68° ENE 19:19:13 10° NNW
SeaSat 1 3.2 19:11:29 10° NNE 19:16:21 58° NW 19:21:10 10° SW
Cosmos 1758 Rocket 3.5 19:12:07 10° N 19:16:29 69° ENE 19:20:47 10° SSE
STARLINK-1240 3.6 19:14:00 10° WSW 19:18:10 87° S 19:22:12 11° E
SJ-6B 3.1 19:16:16 10° S 19:20:22 78° WSW 19:24:33 10° NNW
IRIDIUM 106 4.3 19:15:26 10° N 19:20:41 81° E 19:25:55 10° S
MOS 1 Rocket 4.2 19:16:45 10° NNE 19:21:39 36° E 19:26:37 10° SSE
STARLINK-1216 3.6 19:19:00 10° W 19:23:09 88° S 19:27:00 12° E
CZ-4C R/B 3.9 19:17:51 10° WNW 19:23:18 33° N 19:29:41 10° ENE
Cosmos 1953 Rocket 3.9 19:19:17 10° N 19:23:39 49° ENE 19:27:53 11° SSE
SL-16 R/B 2.8 19:20:33 10° SW 19:26:10 61° NW 19:31:48 10° NNE
STARLINK-1237 3.6 19:23:59 10° W 19:28:09 90° SSE 19:31:47 13° E
Cosmos 1818 4.2 19:25:15 10° S 19:30:00 32° ESE 19:34:46 10° ENE
CZ-2C R/B 3.6 19:25:14 10° S 19:30:04 57° W 19:34:48 10° NNW
Cosmos 921 Rocket 4.0 19:26:43 10° N 19:30:27 30° NE 19:32:50 18° ESE
Cosmos 1606 Rocket 3.9 19:26:28 10° SSE 19:30:40 45° E 19:34:57 10° NNE
Terra 3.8 19:28:43 10° E 19:31:06 14° NE 19:33:33 10° NNE
Cosmos 1758 4.1 19:27:29 10° SSW 19:31:31 56° WNW 19:35:34 10° N
STARLINK-1233 2.9 19:29:22 10° W 19:32:31 85° N 19:34:36 19° E
STARLINK-1212 2.8 19:29:49 10° W 19:32:58 85° N 19:35:01 20° E
STARLINK-1202 3.6 19:28:57 10° W 19:33:07 89° N 19:36:33 15° E
STARLINK-1105 2.9 19:30:16 10° W 19:33:25 85° N 19:35:29 20° E
SL-24 R/B 4.0 19:29:14 10° NNE 19:33:38 56° E 19:37:31 10° S
CZ-2C R/B 3.0 19:28:51 10° NNE 19:33:45 41° E 19:38:36 10° SSE
STARLINK-1206 2.8 19:30:45 10° W 19:33:53 85° N 19:35:53 20° E
STARLINK-1247 2.8 19:31:12 10° W 19:34:20 85° N 19:36:19 20° E
STARLINK-1203 3.6 19:30:17 10° W 19:34:25 88° NNW 19:37:45 15° E
STARLINK-1227 2.9 19:31:36 10° W 19:34:45 85° N 19:36:45 21° E
Cosmos 1656 Rocket 3.7 19:29:29 10° NNW 19:35:13 86° ENE 19:40:13 13° SSE
STARLINK-1218 2.8 19:32:07 10° W 19:35:14 85° N 19:37:11 21° E
Cosmos 407 Rocket 4.4 19:31:19 10° SSE 19:35:30 26° E 19:39:41 10° NE
STARLINK-1226 2.8 19:32:32 10° W 19:35:40 85° N 19:37:37 21° E
STARLINK-1254 2.8 19:32:58 10° W 19:36:07 85° N 19:38:04 21° E
STARLINK-1215 2.8 19:33:27 10° W 19:36:36 85° N 19:38:30 22° E
Cosmos 2228 3.2 19:32:36 10° SSE 19:36:43 47° E 19:40:55 10° NNE
STARLINK-1231 2.8 19:33:56 10° W 19:37:03 85° N 19:38:56 22° E
STARLINK-1232 2.8 19:34:49 10° W 19:37:56 85° N 19:39:48 22° E
STARLINK-1217 2.8 19:35:16 10° W 19:38:23 85° N 19:40:14 23° E
STARLINK-1208 2.8 19:35:40 10° W 19:38:49 85° N 19:40:40 23° E
STARLINK-1229 2.8 19:36:09 10° W 19:39:16 85° N 19:41:04 23° E
STARLINK-1271 2.8 19:36:36 10° W 19:39:45 86° N 19:41:32 23° E
STARLINK-1270 2.8 19:37:04 10° W 19:40:12 86° N 19:41:57 24° E
STARLINK-1154 2.8 19:37:30 10° W 19:40:38 86° N 19:42:23 24° E
STARLINK-1197 2.8 19:38:24 10° W 19:41:33 86° N 19:43:15 24° E
STARLINK-1189 2.8 19:38:53 10° W 19:42:01 86° N 19:43:42 25° E
STARLINK-1198 2.8 19:39:19 10° W 19:42:27 86° N 19:44:07 25° E
STARLINK-1188 2.8 19:39:46 10° W 19:42:54 86° N 19:44:33 25° E
STARLINK-1246 3.6 19:38:53 10° W 19:43:03 88° NNW 19:46:05 18° E
ARGOS 4.0 19:37:56 10° S 19:43:10 51° W 19:48:26 10° NNW
STARLINK-1235 2.8 19:40:25 10° W 19:43:35 89° NNE 19:45:11 26° E
STARLINK-1187 2.8 19:40:44 10° W 19:43:55 87° NNE 19:45:33 26° E
Cosmos 2341 Rocket 4.4 19:37:56 10° N 19:44:03 46° ENE 19:48:37 18° SE
COSMOS 2455 3.2 19:38:15 10° NW 19:44:10 53° NE 19:48:18 20° ESE
BREEZE-M DEB (TANK) 4.3 19:37:58 10° W 19:44:16 43° SSW 19:45:57 22° SE
STARLINK-1199 2.8 19:41:42 10° W 19:44:51 86° N 19:46:28 26° E
MetOp-A 4.3 19:39:51 10° SSE 19:45:13 79° WSW 19:50:37 10° NNW
STARLINK-1191 2.8 19:42:10 10° W 19:45:19 86° N 19:46:54 27° E
SL-4 R/B 3.9 19:43:29 10° S 19:43:45 11° S 19:43:45 11° S
STARLINK-1201 2.9 19:42:20 10° W 19:45:36 86° N 19:47:21 25° E
STARLINK-1210 2.8 19:42:36 10° W 19:45:45 86° N 19:47:20 27° E
STARLINK-1221 2.8 19:43:03 10° W 19:46:12 87° N 19:47:46 27° E
STARLINK-1219 2.8 19:43:30 10° W 19:46:40 87° N 19:48:13 27° E
Cosmos 1980 Rocket 4.4 19:43:53 10° NNW 19:47:02 15° NNE 19:50:11 10° NE
STARLINK-1222 2.8 19:43:58 10° W 19:47:07 87° N 19:48:38 28° E
STARLINK-1211 2.8 19:44:25 10° W 19:47:34 87° N 19:49:04 28° E
STARLINK-1214 2.8 19:44:52 10° W 19:48:01 87° N 19:49:31 28° E
STARLINK-1224 3.6 19:43:55 10° W 19:48:05 87° N 19:50:55 20° E
USA 186 4.1 19:45:26 10° SSW 19:48:18 25° W 19:51:06 10° NW
STARLINK-1234 2.7 19:45:19 10° W 19:48:22 89° SSE 19:49:39 31° E
STARLINK-1228 2.6 19:45:28 10° W 19:48:22 88° SSW 19:49:30 34° E
Cosmos 1603 3.6 19:42:50 10° SSW 19:48:26 72° ESE 19:54:03 10° NE
STARLINK-1245 2.8 19:45:20 10° W 19:48:28 87° N 19:49:55 29° E
STARLINK-1238 2.8 19:45:45 10° W 19:48:55 87° N 19:50:23 29° E
Cosmos 1726 2.1 19:45:20 10° SSW 19:49:04 86° W 19:52:50 10° N
Cosmos 1340 Rocket 3.6 19:47:46 22° SE 19:49:31 32° E 19:53:09 10° NNE
STARLINK-1205 2.8 19:46:42 10° W 19:49:51 87° N 19:51:14 30° E
STARLINK-1204 2.8 19:47:09 10° W 19:50:17 87° NNE 19:51:39 31° E
ERS-1 Rocket 4.1 19:47:59 20° ESE 19:50:24 29° ENE 19:54:41 10° N
Cosmos 1328 3.8 19:48:01 10° NNW 19:52:03 87° W 19:55:28 14° S
H-2A R/B 3.6 19:47:19 10° SSW 19:52:08 36° W 19:56:51 10° NNW
STARLINK-1225 3.6 19:48:52 10° W 19:53:02 87° N 19:55:40 22° E
Meteor 1-16 Rocket 4.1 19:49:52 10° S 19:55:15 83° E 20:00:51 10° NNE
Resurs 1-3 3.9 19:51:38 10° S 19:55:59 68° WSW 20:00:23 10° NNW
Cosmos 2184 Rocket 4.3 19:49:57 10° NNW 19:56:14 68° W 20:02:25 10° S
STARLINK-1230 3.6 19:53:52 10° W 19:58:01 86° N 20:00:28 24° E
STARLINK-1209 2.6 19:55:41 10° W 19:58:39 83° S 19:59:26 45° ESE
STARLINK-1243 3.6 19:58:49 10° W 20:03:00 86° N 20:05:14 26° E
ATLAS CENTAUR R/B 3.6 20:00:16 10° NNW 20:03:02 17° N 20:05:42 10° NE
Cosmos 1703 3.7 19:59:34 10° NNW 20:03:30 64° W 20:06:52 14° S
Meteor 2-10 4.4 19:59:26 10° SSW 20:04:53 75° WNW 20:10:34 10° N
Cosmos 1461 3.1 20:01:17 10° NW 20:05:45 76° NE 20:07:55 31° SE
ERBS 3.2 20:03:51 10° WNW 20:07:06 42° N 20:08:37 25° ENE
STARLINK-1236 3.6 20:03:52 10° W 20:08:01 86° N 20:10:03 29° E
DMSP B5D2-2 4.0 20:03:02 10° NNE 20:08:17 85° ESE 20:13:32 10° SSW
Cosmos 1953 3.7 20:05:17 10° SW 20:09:03 40° WNW 20:12:51 10° N
Cosmos 2251 Rocket 4.1 20:06:17 10° SW 20:11:36 62° WNW 20:16:59 10° NNE
Cosmos 967 Rocket 4.5 20:05:24 10° SW 20:11:52 83° SE 20:18:25 10° NE
Resurs 01 Rocket 2.0 20:12:29 16° S 20:15:57 61° WSW 20:20:20 10° NNW
Cosmos 1825 4.5 20:15:44 10° NE 20:17:14 12° ENE 20:17:14 12° ENE
STARLINK-1269 3.5 20:13:47 10° W 20:17:57 87° N 20:19:36 36° E
Cosmos 2154 Rocket 4.3 20:11:46 10° NNW 20:18:06 72° W 20:24:20 10° S
NOSS 3-4 (A) 4.0 20:13:25 10° NW 20:20:15 70° SW 20:24:57 25° SSE
NOSS 3-4 (C) 4.0 20:13:31 10° NW 20:20:21 70° SW 20:25:02 25° SSE
Cosmos 2369 Rocket 4.0 20:16:16 10° NW 20:20:55 26° WSW 20:25:32 10° SSW
Cosmos 2058 Rocket 3.0 20:18:19 19° S 20:21:31 74° E 20:26:03 10° NNE
USA 245 4.3 20:18:18 26° SSE 20:21:31 78° ENE 20:27:50 10° NNW
Cosmos 2181 Rocket 4.3 20:18:40 27° SE 20:21:36 44° E 20:27:26 10° NNE
STARLINK-1200 3.5 20:18:45 10° W 20:22:55 87° N 20:24:22 40° E
Cosmos 1300 3.1 20:23:46 41° E 20:23:46 41° E 20:27:16 10° NNE
Cosmos 962 Rocket 4.4 20:18:54 10° N 20:25:08 87° E 20:29:12 23° S
Landsat 7 3.8 20:24:18 36° SE 20:26:12 69° ENE 20:30:58 10° N
Cosmos 1763 Rocket 4.4 20:22:19 10° NNW 20:27:07 35° NE 20:28:47 28° E
STARLINK-1192 3.5 20:23:44 10° W 20:27:54 88° N 20:29:09 45° E
Nadezhda 1 Rocket 4.2 20:22:25 10° SSW 20:28:49 77° WNW 20:35:13 10° N
SL-8 Rocket 4.0 20:23:26 10° N 20:29:45 68° ENE 20:32:55 31° SSE
Cosmos 1908 3.8 20:27:37 10° SSW 20:31:25 58° WNW 20:35:17 10° N
NOSS 3-3 (A) 4.1 20:25:55 10° SW 20:31:58 81° NW 20:38:55 10° NE
NOSS 3-3 (C) 4.1 20:26:01 10° SW 20:32:04 81° NW 20:39:01 10° NE
STARLINK-1244 3.5 20:28:43 10° W 20:32:53 89° NNW 20:33:56 50° E
STARLINK-67 4.1 20:30:47 10° W 20:32:21 29° WSW 20:32:21 29° WSW
Abrixas rocket 3.7 20:31:22 10° WSW 20:32:54 23° SW 20:32:54 23° SW
CARTOSAT-1 3.8 20:36:52 46° E 20:37:32 51° ENE 20:41:45 10° N
Cosmos 2058 3.1 20:33:40 10° N 20:37:40 48° ENE 20:37:54 47° E
STARLINK-1138 3.5 20:33:43 10° W 20:37:53 90° SE 20:38:43 56° E
SL-24 R/B - RUBIN 2 4.4 20:34:00 10° SSW 20:39:26 49° ESE 20:45:31 10° NE
SPOT 5 2.8 20:39:20 46° E 20:39:59 51° ENE 20:44:12 10° N
Cosmos 2366 rocket 4.0 20:33:57 10° N 20:40:06 65° ENE 20:42:31 37° SE
Cosmos 1726 Rocket 4.4 20:35:57 10° SSW 20:40:15 52° WNW 20:44:37 10° N
STARLINK-1143 3.5 20:38:38 10° W 20:42:48 88° S 20:43:27 63° ESE
Cosmos 1190 Rocket 3.9 20:40:52 15° SSW 20:45:19 74° ESE 20:50:37 10° NNE
STARLINK-1241 3.5 20:43:40 10° W 20:47:51 87° S 20:48:18 70° ESE
Cosmos 1943 3.8 20:43:15 10° SW 20:48:51 60° NW 20:54:30 10° NNE
Spot 2 Rocket 3.8 20:46:23 29° S 20:48:57 62° WSW 20:54:03 10° NNW
USA 234 3.2 20:43:29 10° ENE 20:49:59 64° SE 20:56:29 10° SW
Cosmos 1959 Rocket 4.4 20:44:42 10° N 20:51:06 78° E 20:53:38 39° SSE
Aureole 1 Rocket 4.1 20:44:44 10° SSW 20:52:22 86° WNW 20:58:19 10° NNE
ATLAS 2AS CENTAUR R/B 3.5 20:45:18 10° NW 20:52:32 47° WSW 20:56:14 26° S
STARLINK-1239 3.4 20:48:40 10° W 20:52:49 86° S 20:53:04 78° ESE
Cosmos 1140 Rocket 3.3 20:51:23 28° SSW 20:54:09 76° ESE 20:59:20 10° NNE
Iridium 4 Rocket 2.8 20:52:09 10° N 20:56:30 74° E 20:56:43 72° ESE
STARLINK-1240 3.4 20:53:38 10° W 20:57:47 84° SSW 20:57:51 83° S
Meteor 2-12 Rocket 4.4 20:51:59 10° N 20:58:06 69° ENE 20:59:54 46° SE
RESURS DK-1 3.6 20:55:41 10° NNW 20:59:26 31° NE 20:59:42 31° NE
Cosmos 1812 Rocket 3.8 21:00:32 53° ENE 21:00:32 53° ENE 21:04:20 10° NNE
Cosmos 841 Rocket 4.3 20:55:45 10° NNW 21:00:40 37° NE 21:01:39 34° ENE
BREEZE M DEB (TANK) 4.0 21:02:08 42° SE 21:02:08 42° SE 21:14:06 10° ENE
STARLINK-1216 3.5 20:58:37 10° W 21:02:39 80° SW 21:02:39 80° SW
Cosmos 1697 Rocket 3.5 21:00:08 10° NNW 21:05:28 39° NE 21:06:58 33° E
STARLINK-1237 3.6 21:03:36 10° W 21:07:26 72° WSW 21:07:26 72° WSW
Terra 1.7 21:07:36 65° ESE 21:08:02 70° ENE 21:12:47 10° N
Cosmos 921 Rocket 4.0 21:04:56 10° NW 21:08:48 37° WSW 21:09:39 33° SW
Cosmos 468 Rocket 3.9 21:03:37 10° NNW 21:08:51 74° ENE 21:09:34 63° ESE
Cosmos 192 4.2 21:04:36 10° NNW 21:09:35 86° ENE 21:10:11 69° SE
STARLINK-1202 3.8 21:08:35 10° W 21:12:12 65° WSW 21:12:12 65° WSW
Cosmos 676 Rocket 3.9 21:12:05 56° S 21:13:10 77° ESE 21:18:27 10° NNE
Cosmos 1818 3.9 21:07:52 10° SW 21:13:17 65° NW 21:18:44 10° NE
CZ-4C R/B 3.5 21:07:02 10° NW 21:13:20 47° NNE 21:17:32 25° E
STARLINK-1203 3.9 21:09:46 10° W 21:13:15 60° WSW 21:13:15 60° WSW
CZ-2C R/B 4.0 21:09:17 10° N 21:14:02 37° WNW 21:18:45 10° SW
SL-16 R/B 4.4 21:11:15 10° NNW 21:15:02 18° NNE 21:18:42 10° ENE
Mayak 0.7 21:11:51 10° NE 21:13:23 19° NE 21:13:23 19° NE
SL-08 R/B 4.4 21:09:28 10° N 21:15:38 79° E 21:17:08 54° SSE
Iridium 2 4.1 21:16:00 62° WNW 21:16:00 62° WNW 21:19:37 10° N
IGS 5A 4.3 21:16:12 38° SW 21:16:53 42° W 21:20:53 10° NNW
Cosmos 407 Rocket 4.0 21:12:04 10° SW 21:17:09 59° WNW 21:22:15 10° NNE
SPOT 1/Viking Rocket 4.1 21:17:02 38° SSW 21:18:41 53° W 21:23:49 10° NNW
Meteor 2-10 Rocket 4.2 21:20:35 38° ENE 21:20:35 38° ENE 21:24:49 10° NNE
Cosmos 2344 4.5 21:12:53 10° NW 21:21:26 60° NNE 21:28:51 24° E
STARLINK-1246 4.2 21:18:31 10° W 21:21:45 51° W 21:21:45 51° W
Cosmos 1821 Rocket 4.1 21:16:32 10° N 21:22:49 59° ENE 21:23:55 52° ESE
Cosmos 489 Rocket 4.4 21:19:32 10° NNW 21:25:46 70° ENE 21:26:55 57° ESE
Cosmos 2322 Rocket 4.4 21:22:40 10° NNW 21:26:26 18° NNE 21:30:00 11° ENE
STARLINK-1224 4.4 21:23:33 10° W 21:26:34 46° W 21:26:34 46° W
ERS-1 Rocket 3.4 21:27:59 46° SW 21:28:57 54° W 21:33:54 10° NNW
COSMOS 2455 3.5 21:24:24 10° NW 21:30:04 43° WSW 21:31:27 37° SSW
Cosmos 2208 Rocket 4.1 21:25:45 10° NNW 21:30:54 58° ENE 21:31:05 58° ENE
Cosmos 1892 3.5 21:28:36 10° NNW 21:31:50 51° NW 21:31:50 51° NW
Cosmos 1980 Rocket 3.1 21:27:34 10° NNW 21:32:45 36° NE 21:33:52 33° ENE
ASTEX 1 3.8 21:33:47 52° ENE 21:33:47 52° ENE 21:38:17 10° N
Cosmos 1934 Rocket 4.4 21:28:55 10° N 21:35:00 47° ENE 21:35:38 45° E
Cosmos 1455 4.0 21:37:02 25° NNE 21:37:02 25° NNE 21:38:48 10° NNE
Cosmos 1954 Rocket 4.1 21:37:55 51° SW 21:39:13 74° WNW 21:44:28 10° NNE
ATLAS CENTAUR R/B 2.6 21:39:13 10° NW 21:42:19 35° N 21:42:19 35° N
Cosmos 1408 4.0 21:39:37 10° NNW 21:41:56 37° NNW 21:41:56 37° NNW
Cosmos 1656 3.6 21:44:26 10° NNW 21:50:10 80° WSW 21:50:24 78° SSW
Cosmos 2278 4.0 21:46:16 10° NNW 21:51:50 53° NE 21:52:13 52° ENE
Cosmos 2151 3.7 21:47:56 10° NNW 21:51:14 51° NW 21:51:14 51° NW
Cosmos 1825 3.6 21:49:41 10° NNW 21:52:03 36° NNW 21:52:03 36° NNW
Cosmos 2082 Rocket 4.1 22:02:46 17° ENE 22:02:46 17° ENE 22:04:27 10° NE
USA 32 4.3 21:55:13 10° NNW 22:00:22 58° W 22:00:37 57° WSW
ATLAS 5 CENTAUR R/B 2.5 22:02:17 45° NNE 22:02:17 45° NNE 22:05:56 10° NE
Okean 3 Rocket 4.4 22:00:22 10° NNW 22:03:52 49° NW 22:03:52 49° NW
Cosmos 1814 Rocket 4.1 22:01:33 10° NNW 22:06:34 78° NNW 22:06:34 78° NNW
COSMOS 2406 3.8 22:09:22 45° ENE 22:09:22 45° ENE 22:13:29 10° NE
Cosmos-2242 4.0 22:09:24 44° N 22:09:24 44° N 22:12:30 10° N
ALOS 2 4.0 22:09:35 32° NNE 22:09:35 32° NNE 22:12:32 10° N
Cosmos 1763 Rocket 4.1 22:04:07 10° NW 22:08:49 47° W 22:08:49 47° W
Cosmos 1833 Rocket 3.8 22:21:36 32° ENE 22:21:36 32° ENE 22:24:52 10° NE
Cosmos 1850 Rocket 4.3 22:26:13 63° NNW 22:26:13 63° NNW 22:30:47 10° NNE
Cosmos 540 Rocket 4.0 22:25:12 10° NNW 22:29:24 52° WNW 22:29:24 52° WNW
Cosmos 2369 3.9 22:26:30 10° NW 22:31:29 62° WNW 22:31:29 62° WNW
USA 234 3.4 22:26:37 10° ENE 22:33:08 72° NNW 22:39:39 10° W
RESURS DK-1 4.4 22:33:38 10° NW 22:35:35 25° WNW 22:35:35 25° WNW
Nadezhda 3 Rocket 4.2 22:37:09 60° WSW 22:37:50 64° WNW 22:44:07 10° N
Cosmos 841 Rocket 4.4 22:37:39 10° NW 22:41:45 41° WNW 22:41:45 41° WNW
Meteor 2-3 Rocket 4.0 22:37:12 10° NNW 22:42:30 63° WNW 22:42:30 63° WNW
Terra 3.9 22:46:29 19° W 22:46:29 19° W 22:49:42 10° NW
Cosmos 1697 Rocket 3.4 22:44:09 10° NW 22:48:42 46° W 22:48:42 46° W
Mayak 0.5 22:47:15 10° N 22:49:57 31° NNW 22:49:57 31° NNW
Cosmos 1727 Rocket 4.3 22:59:22 55° ENE 22:59:22 55° ENE 23:04:54 10° NNE
SL-16 R/B 2.8 22:55:03 10° NNW 23:00:32 48° NE 23:00:32 48° NE
Cosmos 1459 Rocket 4.4 22:55:06 10° N 23:01:18 52° ENE 23:01:18 52° ENE
CZ-4C R/B 2.7 22:55:32 10° NW 23:02:31 79° SW 23:02:43 78° SSW
Thor Agena Rocket 4.3 23:01:13 10° N 23:05:38 46° NW 23:05:38 46° NW
Cosmos 2360 Rocket 3.6 23:04:30 10° NNW 23:09:32 32° NE 23:10:44 29° ENE
Cosmos 2333 Rocket 4.4 23:06:24 10° NNW 23:10:33 20° NNE 23:14:41 10° ENE
Cosmos 2322 Rocket 2.8 23:06:24 10° NNW 23:11:48 49° NE 23:11:48 49° NE
Cosmos 2100 Rocket 4.1 23:07:03 10° N 23:12:54 64° ENE 23:12:54 64° ENE
Cosmos 1980 Rocket 3.0 23:11:33 10° NW 23:15:38 44° WNW 23:15:38 44° WNW
ATLAS CENTAUR R/B 4.2 23:18:17 10° NW 23:18:29 11° WNW 23:18:29 11° WNW
Cosmos 1605 Rocket 4.5 23:21:08 10° NNW 23:26:35 48° WNW 23:26:35 48° WNW
Cosmos 2173 Rocket 4.0 23:22:49 10° N 23:28:25 71° NNE 23:28:25 71° NNE
Cosmos 2344 4.3 23:27:16 10° NW 23:36:32 65° SW 23:38:51 56° S
Cosmos 2082 Rocket 2.6 23:44:35 61° N 23:44:35 61° N 23:49:20 10° NNE
Cosmos 2221 4.4 23:45:47 28° NNW 23:45:47 28° NNW 23:48:19 10° N
ATLAS 5 CENTAUR R/B 3.7 23:43:41 17° WNW 23:46:27 28° NNW 23:51:03 10° NE
CZ-2D R/B 4.4 23:45:40 10° NE 23:48:35 14° E 23:48:41 14° E
COSMOS 2406 4.4 23:51:23 32° WNW 23:52:31 35° NW 23:57:46 10° NNE
